| time (UTC) | temp F | wind direction | speed MPH | gust MPH | rain 1hr in | rain 24hr in | rain mn in | humidity % | barometer mb |
| 20260509001520 | 58 | 165 | 3.0 | 13.0 | 0.00 | 0.02 | 0.02 | 67 | 1007.8 |
| 20260509000019 | 59 | 191 | 5.0 | 11.0 | 0.00 | 0.02 | 0.02 | 62 | 1007.7 |
| 20260508234518 | 61 | 166 | 5.0 | 9.0 | 0.00 | 0.02 | 0.02 | 58 | 1007.7 |
| 20260508233016 | 61 | 221 | 2.0 | 9.0 | 0.00 | 0.02 | 0.02 | 54 | 1007.8 |
| 20260508231515 | 61 | 212 | 1.0 | 7.0 | 0.00 | 0.02 | 0.02 | 53 | 1007.8 |
| 20260508230034 | 61 | 173 | 4.0 | 11.0 | 0.00 | 0.02 | 0.02 | 53 | 1007.8 |
| 20260508224538 | 61 | 221 | 5.0 | 14.0 | 0.00 | 0.02 | 0.02 | 51 | 1007.9 |
| 20260508223024 | 61 | 217 | 6.0 | 13.0 | 0.00 | 0.02 | 0.02 | 48 | 1007.9 |
| 20260508221511 | 61 | 172 | 4.0 | 12.0 | 0.00 | 0.02 | 0.02 | 46 | 1008.0 |
| 20260508220011 | 61 | 166 | 8.0 | 13.0 | 0.00 | 0.02 | 0.02 | 46 | 1008.1 |
| 20260508214509 | 61 | 184 | 7.0 | 13.0 | 0.00 | 0.02 | 0.02 | 45 | 1008.1 |
| 20260508213009 | 61 | 177 | 7.0 | 14.0 | 0.00 | 0.02 | 0.02 | 44 | 1008.0 |
| 20260508211509 | 61 | 200 | 7.0 | 15.0 | 0.00 | 0.02 | 0.02 | 46 | 1008.1 |
| 20260508210005 | 61 | 240 | 7.0 | 12.0 | 0.00 | 0.02 | 0.02 | 43 | 1008.2 |
| 20260508204513 | 60 | 197 | 4.0 | 18.0 | 0.00 | 0.02 | 0.02 | 44 | 1008.5 |
| 20260508203002 | 61 | 191 | 6.0 | 13.0 | 0.00 | 0.02 | 0.02 | 46 | 1008.7 |
| 20260508201600 | 61 | 233 | 4.0 | 14.0 | 0.00 | 0.02 | 0.02 | 42 | 1008.9 |
| 20260508200100 | 60 | 250 | 8.0 | 15.0 | 0.00 | 0.02 | 0.02 | 44 | 1009.1 |
| 20260508194558 | 60 | 134 | 2.0 | 11.0 | 0.00 | 0.02 | 0.02 | 46 | 1009.3 |
| 20260508193128 | 61 | 242 | 4.0 | 13.0 | 0.00 | 0.02 | 0.02 | 41 | 1009.5 |
| 20260508191554 | 59 | 169 | 9.0 | 14.0 | 0.00 | 0.02 | 0.02 | 45 | 1009.5 |
| 20260508190053 | 60 | 238 | 7.0 | 14.0 | 0.00 | 0.02 | 0.02 | 36 | 1009.9 |
| 20260508184612 | 59 | 201 | 10.0 | 16.0 | 0.00 | 0.02 | 0.02 | 39 | 1010.0 |
| 20260508183047 | 59 | 211 | 9.0 | 16.0 | 0.00 | 0.02 | 0.02 | 35 | 1010.2 |
| 20260508181547 | 59 | 172 | 4.0 | 13.0 | 0.00 | 0.02 | 0.02 | 39 | 1010.4 |
| 20260508180050 | 59 | 220 | 10.0 | 15.0 | 0.00 | 0.02 | 0.02 | 36 | 1010.6 |
| 20260508174556 | 58 | 169 | 5.0 | 15.0 | 0.00 | 0.02 | 0.02 | 35 | 1010.9 |
| 20260508173038 | 58 | 278 | 2.0 | 12.0 | 0.00 | 0.02 | 0.02 | 39 | 1011.2 |
| 20260508171553 | 58 | 347 | 1.0 | 14.0 | 0.00 | 0.02 | 0.02 | 39 | 1011.4 |
| 20260508170038 | 57 | 299 | 4.0 | 7.0 | 0.00 | 0.02 | 0.02 | 39 | 1011.8 |
| 20260508164537 | 57 | 175 | 6.0 | 16.0 | 0.00 | 0.02 | 0.02 | 39 | 1011.9 |
| 20260508163033 | 56 | 309 | 3.0 | 10.0 | 0.00 | 0.02 | 0.02 | 41 | 1011.9 |
| 20260508161539 | 55 | 253 | 3.0 | 10.0 | 0.00 | 0.02 | 0.02 | 43 | 1012.1 |
| 20260508160032 | 56 | 326 | 5.0 | 8.0 | 0.00 | 0.02 | 0.02 | 45 | 1012.1 |
| 20260508154525 | 55 | 126 | 2.0 | 9.0 | 0.00 | 0.02 | 0.02 | 44 | 1012.3 |
| 20260508153033 | 55 | 345 | 2.0 | 8.0 | 0.00 | 0.02 | 0.02 | 45 | 1012.3 |
| 20260508151531 | 54 | 243 | 6.0 | 10.0 | 0.00 | 0.02 | 0.02 | 47 | 1012.5 |
| 20260508150016 | 53 | 283 | 4.0 | 11.0 | 0.00 | 0.02 | 0.02 | 58 | 1012.5 |
| 20260508144514 | 52 | 252 | 4.0 | 10.0 | 0.00 | 0.02 | 0.02 | 51 | 1012.7 |
| 20260508143011 | 52 | 255 | 2.0 | 7.0 | 0.00 | 0.02 | 0.02 | 55 | 1012.8 |
| 20260508141512 | 51 | 191 | 3.0 | 7.0 | 0.00 | 0.02 | 0.02 | 57 | 1012.9 |
| 20260508140008 | 51 | 263 | 3.0 | 7.0 | 0.00 | 0.02 | 0.02 | 60 | 1013.0 |
| 20260508134506 | 50 | 290 | 2.0 | 5.0 | 0.00 | 0.02 | 0.02 | 63 | 1012.9 |
| 20260508133113 | 50 | 207 | 1.0 | 5.0 | 0.00 | 0.02 | 0.02 | 68 | 1013.2 |
| 20260508131601 | 48 | 207 | 4.0 | 6.0 | 0.00 | 0.02 | 0.02 | 69 | 1013.1 |
| 20260508130058 | 47 | 215 | 3.0 | 7.0 | 0.00 | 0.02 | 0.02 | 73 | 1013.2 |
| 20260508124548 | 47 | 231 | 2.0 | 4.0 | 0.00 | 0.02 | 0.02 | 78 | 1013.1 |
| 20260508123044 | 45 | 269 | 2.0 | 4.0 | 0.00 | 0.02 | 0.02 | 82 | 1012.7 |
| 20260508121541 | 44 | 269 | 0.0 | 3.0 | 0.00 | 0.02 | 0.02 | 87 | 1012.6 |
| 20260508120043 | 42 | 268 | 0.0 | 1.0 | 0.00 | 0.02 | 0.02 | 91 | 1012.6 |
| 20260508114534 | 41 | 268 | 0.0 | 0.0 | 0.00 | 0.02 | 0.02 | 91 | 1012.4 |
| 20260508113037 | 39 | 268 | 0.0 | 0.0 | 0.00 | 0.02 | 0.02 | 91 | 1012.4 |
| 20260508111532 | 38 | 268 | 0.0 | 0.0 | 0.00 | 0.02 | 0.02 | 91 | 1012.3 |
| 20260508110032 | 36 | 268 | 0.0 | 0.0 | 0.00 | 0.02 | 0.02 | 92 | 1012.3 |
| 20260508104530 | 34 | 268 | 0.0 | 0.0 | 0.00 | 0.02 | 0.02 | 92 | 1012.2 |
| 20260508103029 | 33 | 268 | 0.0 | 1.0 | 0.00 | 0.02 | 0.02 | 92 | 1012.3 |
| 20260508101527 | 34 | 268 | 0.0 | 0.0 | 0.00 | 0.02 | 0.02 | 92 | 1012.3 |
| 20260508100023 | 34 | 268 | 0.0 | 0.0 | 0.00 | 0.02 | 0.02 | 91 | 1012.4 |
| 20260508094521 | 35 | 268 | 0.0 | 1.0 | 0.00 | 0.02 | 0.02 | 91 | 1012.4 |
| 20260508093019 | 36 | 268 | 0.0 | 1.0 | 0.00 | 0.02 | 0.02 | 91 | 1012.4 |
| 20260508091528 | 37 | 268 | 0.0 | 1.0 | 0.00 | 0.02 | 0.02 | 91 | 1012.4 |
| 20260508090015 | 38 | 268 | 0.0 | 1.0 | 0.00 | 0.02 | 0.02 | 90 | 1012.5 |
| 20260508084509 | 39 | 268 | 0.0 | 1.0 | 0.01 | 0.02 | 0.02 | 89 | 1012.4 |
| 20260508083018 | 39 | 268 | 0.0 | 2.0 | 0.02 | 0.02 | 0.02 | 90 | 1012.3 |
| 20260508081509 | 39 | 285 | 1.0 | 7.0 | 0.02 | 0.02 | 0.02 | 91 | 1012.4 |
| 20260508080005 | 39 | 188 | 0.0 | 3.0 | 0.02 | 0.02 | 0.02 | 91 | 1012.5 |
| 20260508074504 | 39 | 176 | 0.0 | 2.0 | 0.01 | 0.01 | 0.01 | 91 | 1012.3 |
| 20260508073003 | 39 | 176 | 0.0 | 0.0 | 0.00 | 0.00 | 0.00 | 90 | 1012.3 |
| 20260508071503 | 40 | 176 | 0.0 | 0.0 | 0.00 | 0.00 | 0.00 | 90 | 1012.5 |
| 20260508070101 | 40 | 172 | 1.0 | 4.0 | 0.00 | 0.00 | 0.00 | 90 | 1012.5 |
| 20260508070002 | 40 | 165 | 2.0 | 4.0 | 0.00 | 0.00 | 0.00 | 90 | 1012.5 |
| 20260508064556 | 40 | 146 | 1.0 | 4.0 | 0.00 | 0.00 | 0.00 | 90 | 1012.8 |
| 20260508063133 | 40 | 193 | 0.0 | 2.0 | 0.00 | 0.00 | 0.00 | 89 | 1013.0 |
| 20260508061554 | 40 | 194 | 0.0 | 2.0 | 0.00 | 0.00 | 0.00 | 89 | 1013.1 |
| 20260508060053 | 40 | 153 | 1.0 | 2.0 | 0.00 | 0.00 | 0.00 | 88 | 1013.1 |
| 20260508054550 | 39 | 33 | 0.0 | 1.0 | 0.00 | 0.00 | 0.00 | 87 | 1013.4 |
| 20260508053054 | 39 | 33 | 0.0 | 1.0 | 0.00 | 0.00 | 0.00 | 86 | 1013.3 |
| 20260508051607 | 40 | 33 | 0.0 | 0.0 | 0.00 | 0.00 | 0.00 | 86 | 1013.4 |
| 20260508050045 | 40 | 33 | 0.0 | 1.0 | 0.00 | 0.00 | 0.00 | 84 | 1013.2 |
| 20260508044545 | 40 | 33 | 0.0 | 3.0 | 0.00 | 0.00 | 0.00 | 84 | 1013.0 |
| 20260508043039 | 40 | 44 | 0.0 | 1.0 | 0.00 | 0.00 | 0.00 | 83 | 1012.9 |
| 20260508041535 | 40 | 44 | 0.0 | 1.0 | 0.00 | 0.00 | 0.00 | 82 | 1013.0 |
| 20260508040033 | 41 | 44 | 0.0 | 2.0 | 0.00 | 0.00 | 0.00 | 80 | 1013.0 |
| 20260508034532 | 42 | 44 | 0.0 | 3.0 | 0.00 | 0.00 | 0.00 | 77 | 1013.1 |
| 20260508033035 | 41 | 319 | 0.0 | 3.0 | 0.00 | 0.00 | 0.00 | 81 | 1013.1 |
| 20260508031530 | 41 | 41 | 0.0 | 2.0 | 0.00 | 0.00 | 0.00 | 78 | 1013.2 |
| 20260508030031 | 41 | 41 | 0.0 | 1.0 | 0.00 | 0.00 | 0.00 | 78 | 1012.9 |
| 20260508024532 | 41 | 41 | 0.0 | 1.0 | 0.00 | 0.00 | 0.00 | 77 | 1013.0 |
| 20260508023033 | 41 | 46 | 2.0 | 6.0 | 0.00 | 0.00 | 0.00 | 77 | 1013.1 |
| 20260508021534 | 41 | 20 | 3.0 | 5.0 | 0.00 | 0.00 | 0.00 | 76 | 1013.1 |
| 20260508020028 | 41 | 132 | 0.0 | 1.0 | 0.00 | 0.00 | 0.00 | 77 | 1013.3 |
| 20260508014528 | 41 | 132 | 0.0 | 2.0 | 0.00 | 0.00 | 0.00 | 78 | 1012.9 |
| 20260508013029 | 40 | 132 | 0.0 | 1.0 | 0.00 | 0.00 | 0.00 | 76 | 1012.6 |
| 20260508011531 | 41 | 37 | 0.0 | 2.0 | 0.00 | 0.00 | 0.00 | 75 | 1012.6 |
| 20260508010037 | 42 | 37 | 0.0 | 4.0 | 0.00 | 0.00 | 0.00 | 74 | 1012.5 |
| 20260508004527 | 42 | 115 | 0.0 | 1.0 | 0.00 | 0.00 | 0.00 | 73 | 1012.4 |
| 20260508003025 | 43 | 115 | 0.0 | 4.0 | 0.00 | 0.00 | 0.00 | 72 | 1012.4 |